TimeEST,TemperatureF,Dew PointF,Humidity,Sea Level PressureIn,VisibilityMPH,Wind Direction,Wind SpeedMPH,Gust SpeedMPH,PrecipitationIn,Events,Conditions,WindDirDegrees,DateUTC
12:57 AM,42.1,32.0,67,29.95,10.0,NW,10.4,-,N/A,,Mostly Cloudy,310,2012-12-30 05:57:00
1:57 AM,41.0,30.0,65,29.98,10.0,NW,8.1,16.1,N/A,,Clear,310,2012-12-30 06:57:00
2:57 AM,39.9,30.0,68,30.02,10.0,WNW,6.9,-,N/A,,Partly Cloudy,300,2012-12-30 07:57:00
3:57 AM,39.0,28.9,67,30.06,10.0,WNW,9.2,17.3,N/A,,Clear,300,2012-12-30 08:57:00
4:57 AM,37.9,28.0,68,30.09,10.0,WNW,8.1,-,N/A,,Clear,300,2012-12-30 09:57:00
5:57 AM,37.0,27.0,67,30.14,10.0,WNW,6.9,-,N/A,,Clear,300,2012-12-30 10:57:00
6:57 AM,35.1,25.0,67,30.17,10.0,WNW,5.8,-,N/A,,Clear,290,2012-12-30 11:57:00
7:57 AM,36.0,25.0,64,30.21,10.0,WNW,8.1,-,N/A,,Clear,300,2012-12-30 12:57:00
8:57 AM,39.0,24.1,55,30.25,10.0,NW,11.5,20.7,N/A,,Clear,310,2012-12-30 13:57:00
9:57 AM,41.0,23.0,49,30.28,10.0,WNW,9.2,24.2,N/A,,Clear,300,2012-12-30 14:57:00
10:57 AM,44.1,21.9,42,30.29,10.0,NW,13.8,24.2,N/A,,Clear,320,2012-12-30 15:57:00
11:57 AM,45.0,21.0,39,30.28,10.0,WNW,15.0,21.9,N/A,,Unknown,300,2012-12-30 16:57:00
12:57 PM,46.9,21.9,37,30.27,10.0,NNW,11.5,20.7,N/A,,Clear,340,2012-12-30 17:57:00
1:57 PM,46.9,21.0,36,30.27,10.0,NW,12.7,-,N/A,,Clear,310,2012-12-30 18:57:00
2:57 PM,46.9,19.9,34,30.30,10.0,NW,11.5,20.7,N/A,,Clear,320,2012-12-30 19:57:00
3:57 PM,46.0,19.0,34,30.32,10.0,NW,11.5,18.4,N/A,,Clear,320,2012-12-30 20:57:00
4:57 PM,43.0,21.0,42,30.34,10.0,NW,5.8,-,N/A,,Clear,320,2012-12-30 21:57:00
5:57 PM,39.9,21.9,49,30.36,10.0,NW,4.6,-,N/A,,Clear,320,2012-12-30 22:57:00
6:57 PM,37.0,24.1,59,30.37,10.0,Calm,Calm,-,N/A,,Clear,0,2012-12-30 23:57:00
7:57 PM,33.1,24.1,70,30.38,10.0,WNW,3.5,-,N/A,,Clear,290,2012-12-31 00:57:00
8:57 PM,32.0,24.1,73,30.40,10.0,West,3.5,-,N/A,,Clear,280,2012-12-31 01:57:00
9:57 PM,34.0,26.1,73,30.42,10.0,WNW,3.5,-,N/A,,Clear,290,2012-12-31 02:57:00
10:57 PM,30.0,25.0,82,30.42,10.0,WSW,3.5,-,N/A,,Clear,250,2012-12-31 03:57:00
11:57 PM,35.1,25.0,67,30.43,10.0,West,3.5,-,N/A,,Clear,270,2012-12-31 04:57:00